[[{"header":{"parameterUnit":"m.s-1","parameterCategory":1,"la1":30.2991,"la2":30.254,"lo1":-89.0895,"lo2":-89.0444,"dy":0.0017,"dx":0.0017,"nx":28,"ny":28,"refTime":"2024-05-21T21:00:00:Z","depth":0,"parameterNumber":2,"parameterNumberName":"U-component_of_WINDS"},"data":[0,0,0,0,0,0,0,0,0,0,0,0,0,0,0,0,0,0,0,0,0,0,0,0,0,0,0,0,0,0,0,0,0,0,0,0,0,0,0,0,0,0,0,0,0,0,0,0,0,0,0,0,0,0,0,0,0,0,-1.7429,-1.7429,0,-1.7451,-1.7451,-1.7452,-1.7422,-1.7421,-1.742,-1.7419,-1.7443,-1.7445,-1.7446,0,0,0,0,0,0,0,0,0,0,0,0,0,-1.7364,-1.7366,-1.7429,-1.7429,-1.743,-1.7451,-1.7451,-1.7452,-1.7422,-1.7421,-1.7419,-1.7418,-1.7442,-1.7444,-1.7446,0,0,0,0,0,0,0,0,0,0,0,0,0,-1.739,-1.7366,-1.7429,-1.7417,-1.7417,-1.7451,-1.7451,-1.7452,-1.7422,-1.7421,-1.7419,-1.7418,-1.7442,-1.7444,-1.7447,-1.7494,0,0,-1.7454,-1.7455,0,0,0,0,0,0,0,0,-1.7389,-1.7393,-1.7419,-1.7418,-1.7417,-1.7432,-1.7437,-1.7466,-1.7423,-1.742,-1.7419,-1.7417,-1.7441,-1.7443,-1.7451,-1.7495,-1.7496,-1.7454,-1.7456,-1.7457,-1.7458,0,0,0,0,0,0,0,-1.7387,-1.7391,-1.7438,-1.7419,-1.7418,-1.7412,-1.7414,-1.7443,-1.7439,-1.742,-1.7418,-1.7421,-1.744,-1.7449,-1.7451,-1.7497,-1.7454,-1.7457,-1.7458,-1.7459,-1.7582,-1.7584,0,0,0,0,0,0,-1.7386,-1.739,-1.7437,-1.7438,-1.7399,-1.7415,-1.7417,-1.7429,-1.7439,-1.7439,-1.7422,-1.742,-1.7445,-1.7448,-1.7452,-1.7508,-1.7457,-1.7459,-1.7461,-1.758,-1.7582,-1.7584,0,0,0,0,0,0,-1.7385,-1.7391,-1.7436,-1.7414,-1.7419,-1.7417,-1.7432,-1.743,-1.7439,-1.744,-1.744,-1.7431,-1.7444,-1.7449,-1.7484,-1.7508,-1.746,-1.7463,-1.7578,-1.7581,-1.7583,-1.7621,0,0,0,0,0,0,-1.7383,-1.739,-1.7408,-1.7414,-1.742,-1.7467,-1.7433,-1.7432,-1.7443,-1.7439,-1.7449,-1.7449,-1.7443,-1.748,-1.7486,-1.7511,-1.7465,-1.7576,-1.7579,-1.7582,-1.7617,-1.7624,-1.763,0,0,0,0,0,-1.7381,-1.7418,-1.7409,-1.7414,-1.7442,-1.7468,-1.7472,-1.7464,-1.7445,-1.7463,-1.7464,-1.7449,-1.7505,-1.7484,-1.7491,-1.7516,-1.7574,-1.7578,-1.7582,-1.7614,-1.7623,-1.763,0,0,0,0,0,0,-1.7414,-1.7418,-1.7408,-1.7448,-1.7458,-1.7463,-1.7485,-1.7473,-1.7489,-1.7485,-1.7476,-1.7478,-1.7516,-1.752,-1.7496,-1.7563,-1.7537,-1.7542,-1.7559,-1.7567,-1.7574,-1.7571,-1.7467,0,0,0,0,0,-1.7426,-1.7446,-1.7449,-1.7484,-1.749,-1.7487,-1.7498,-1.7491,-1.7501,-1.7506,-1.751,-1.7521,-1.7541,-1.7555,-1.7573,-1.7618,-1.762,-1.764,-1.7646,-1.7652,-1.7656,-1.768,-1.7689,-1.7597,-1.7597,-1.7597,0,0,-1.7451,-1.7455,-1.7469,-1.7491,-1.7498,-1.752,-1.749,-1.7515,-1.7532,-1.751,-1.7543,-1.7547,-1.7559,-1.7599,-1.7617,-1.7603,-1.7682,-1.7657,-1.7661,-1.7662,-1.7685,-1.7694,-1.7702,-1.76,-1.76,-1.7599,0,0,-1.7506,-1.7512,-1.7542,-1.755,-1.756,-1.7559,-1.7566,-1.7573,-1.7575,-1.7608,-1.7592,-1.7613,-1.7648,-1.7657,-1.7666,-1.7728,-1.7714,-1.7735,-1.7768,-1.7792,-1.78,-1.7806,-1.7827,-1.7835,-1.7739,-1.774,-1.774,0,-1.7536,-1.7567,-1.7559,-1.7584,-1.7595,-1.7576,-1.7606,-1.7615,-1.7632,-1.764,-1.7625,-1.7669,-1.7676,-1.7718,-1.7733,-1.7742,-1.775,-1.7732,-1.7799,-1.7805,-1.7811,-1.7832,-1.784,-1.7742,-1.7742,-1.7741,-1.7741,0,-1.7603,-1.7626,-1.7648,-1.7664,-1.7678,-1.7706,-1.7702,-1.7717,-1.771,-1.771,-1.7745,-1.7753,-1.7773,-1.7783,-1.7776,-1.7825,-1.7816,-1.7801,-1.7773,-1.7822,-1.7841,-1.7849,-1.7745,-1.7744,-1.7744,-1.7743,0,0,-1.7678,-1.769,-1.7699,-1.7706,-1.7717,-1.7735,-1.7763,-1.7782,-1.7795,-1.7809,-1.7832,-1.7863,-1.7849,-1.786,-1.7854,-1.7875,-1.7924,-1.7857,-1.7857,-1.7868,-1.7978,-1.7988,-1.7998,-1.7916,-1.7917,-1.7918,-1.7976,0,-1.7734,-1.778,-1.7774,-1.782,-1.7841,-1.7824,-1.7849,-1.7859,-1.7861,-1.788,-1.7882,-1.7904,-1.7884,-1.789,-1.791,-1.7913,-1.7945,-1.7909,-1.7937,-1.7938,-1.7933,-1.8008,-1.8019,-1.8073,-1.7984,-1.7985,-1.7986,0,-1.7804,-1.7819,-1.7866,-1.7875,-1.7883,-1.7905,-1.7923,-1.7941,-1.7953,-1.7953,-1.7966,-1.7957,-1.7986,-1.796,-1.8,-1.7976,-1.7988,-1.7991,-1.7993,-1.7994,-1.7964,-1.801,-1.809,-1.8098,-1.7998,-1.7997,-1.7996,0,-1.7853,-1.7885,-1.7918,-1.7925,-1.7936,-1.7952,-1.7958,-1.7968,-1.798,-1.7997,-1.8005,-1.8025,-1.8035,-1.8051,-1.8049,-1.803,-1.809,-1.8063,-1.8091,-1.8091,-1.8102,-1.8102,-1.8185,-1.8112,-1.8112,-1.8112,-1.8112,0,-1.7915,-1.7944,-1.794,-1.796,-1.7993,-1.7986,-1.802,-1.8023,-1.8033,-1.8054,-1.8042,-1.8063,-1.8058,-1.8079,-1.8078,-1.8111,-1.8117,-1.8117,-1.8116,-1.8118,-1.8118,-1.8124,-1.812,-1.8114,-1.8114,-1.8113,-1.8113,0,-1.7975,-1.7973,-1.8007,-1.8015,-1.8018,-1.8042,-1.805,-1.8069,-1.807,-1.8097,-1.8103,-1.8105,-1.8129,-1.8129,-1.8156,-1.8155,-1.8196,-1.8191,-1.8192,-1.819,-1.8217,-1.8215,-1.8307,-1.8319,-1.8239,-1.824,-1.8241,0,-1.8013,-1.8035,-1.8046,-1.8059,-1.8065,-1.8086,-1.8099,-1.8094,-1.8108,-1.8124,-1.8142,-1.8165,-1.8182,-1.8221,-1.8226,-1.8247,-1.8242,-1.8273,-1.8245,-1.8246,-1.8242,-1.824,-1.8242,-1.8278,-1.8279,-1.828,-1.828,0,-1.8082,-1.808,-1.8098,-1.8116,-1.8131,-1.8146,-1.8159,-1.8171,-1.8168,-1.8184,-1.8208,-1.8221,-1.8249,-1.8272,-1.8293,-1.83,-1.829,-1.8289,-1.8297,-1.8298,-1.8296,-1.8297,-1.8205,-1.8287,-1.8286,-1.8286,-1.8285,-1.8285,-1.8132,-1.8151,-1.8161,-1.8182,-1.8191,-1.8204,-1.8223,-1.8226,-1.8246,-1.8267,-1.8264,-1.8291,-1.8304,-1.833,-1.834,-1.8361,-1.835,-1.8361,-1.8364,-1.8366,-1.8369,-1.8294,-1.8365,-1.8365,-1.8365,-1.8365,-1.8365,0,-1.8199,-1.8205,-1.8225,-1.8243,-1.826,-1.8249,-1.8263,-1.8278,-1.8301,-1.8314,-1.8332,-1.836,-1.8382,-1.8389,-1.8411,-1.8427,-1.8423,-1.8433,-1.8431,-1.8433,-1.8378,-1.8369,-1.8436,-1.8436,-1.8436,-1.8436,-1.8436,-1.8436,-1.8236,-1.8268,-1.8268,-1.8304,-1.8311,-1.8336,-1.8345,-1.8357,-1.8367,-1.8399,-1.8417,-1.8421,-1.8432,-1.8455,-1.8475,-1.8477,-1.8485,-1.8497,-1.8497,-1.8444,-1.8437,-1.843,-1.8422,-1.8499,-1.8499,-1.855,-1.8551,-1.8551]},{"header":{"parameterUnit":"m.s-1","parameterCategory":1,"la1":30.2991,"la2":30.254,"lo1":-89.0895,"lo2":-89.0444,"dy":0.0017,"dx":0.0017,"nx":28,"ny":28,"refTime":"2024-05-21T21:00:00:Z","depth":0,"parameterNumber":3,"parameterNumberName":"V-component_of_WINDS"},"data":[0,0,0,0,0,0,0,0,0,0,0,0,0,0,0,0,0,0,0,0,0,0,0,0,0,0,0,0,0,0,0,0,0,0,0,0,0,0,0,0,0,0,0,0,0,0,0,0,0,0,0,0,0,0,0,0,0,0,5.1462,5.1462,0,5.1483,5.1484,5.1484,5.1482,5.1482,5.1482,5.1481,5.1501,5.1502,5.1503,0,0,0,0,0,0,0,0,0,0,0,0,0,5.1417,5.1418,5.1462,5.1462,5.1462,5.1483,5.1484,5.1484,5.1482,5.1482,5.1482,5.1481,5.1501,5.1502,5.1503,0,0,0,0,0,0,0,0,0,0,0,0,0,5.1437,5.1418,5.1462,5.1464,5.1465,5.1483,5.1484,5.1484,5.1482,5.1482,5.1481,5.1481,5.15,5.1502,5.1503,5.152,0,0,5.1506,5.1507,0,0,0,0,0,0,0,0,5.1436,5.1439,5.1464,5.1464,5.1465,5.148,5.1475,5.1496,5.1483,5.1476,5.1481,5.1481,5.1494,5.1496,5.1501,5.152,5.1521,5.1507,5.1507,5.1508,5.1508,0,0,0,0,0,0,0,5.1435,5.1438,5.147,5.1464,5.1465,5.1463,5.1466,5.1479,5.1487,5.1476,5.1476,5.1479,5.1494,5.15,5.1501,5.1522,5.1507,5.1508,5.1508,5.1509,5.1556,5.1557,0,0,0,0,0,0,5.1433,5.1437,5.147,5.1471,5.1449,5.1465,5.1467,5.1475,5.1487,5.1488,5.1479,5.1479,5.1498,5.15,5.1502,5.1523,5.1508,5.1509,5.151,5.1556,5.1556,5.1557,0,0,0,0,0,0,5.1432,5.1436,5.1469,5.1454,5.1458,5.1466,5.1475,5.1476,5.1481,5.1489,5.149,5.1483,5.1497,5.15,5.1515,5.1523,5.1509,5.1511,5.1555,5.1556,5.1557,5.1564,0,0,0,0,0,0,5.1431,5.1436,5.1443,5.1454,5.1459,5.1483,5.1475,5.1477,5.1484,5.1483,5.1494,5.1495,5.1497,5.1514,5.1517,5.1525,5.1512,5.1554,5.1555,5.1556,5.1563,5.1565,5.1567,0,0,0,0,0,5.1429,5.1444,5.1443,5.1447,5.1468,5.1483,5.1486,5.1489,5.1484,5.1491,5.1496,5.1494,5.1522,5.1515,5.1518,5.1527,5.1554,5.1555,5.1556,5.1562,5.1565,5.1567,0,0,0,0,0,0,5.1432,5.1445,5.1445,5.1463,5.1472,5.1483,5.1492,5.1491,5.1501,5.15,5.1503,5.1505,5.1521,5.1525,5.1518,5.1544,5.1537,5.1539,5.1541,5.1543,5.1545,5.1543,5.1513,0,0,0,0,0,5.1435,5.1447,5.1457,5.1473,5.1477,5.1484,5.149,5.1492,5.1501,5.1505,5.1511,5.1519,5.153,5.1536,5.1546,5.1564,5.1566,5.1571,5.1573,5.1574,5.1576,5.1585,5.1588,5.1561,5.1561,5.1561,0,0,5.1441,5.145,5.1457,5.1473,5.1481,5.1492,5.1487,5.1499,5.1508,5.1506,5.1522,5.1526,5.1535,5.1552,5.1559,5.1556,5.1584,5.1576,5.1577,5.1578,5.1587,5.1589,5.1592,5.1562,5.1561,5.1561,0,0,5.1458,5.1466,5.148,5.1487,5.1498,5.1502,5.1505,5.1516,5.1519,5.1535,5.1534,5.1543,5.1561,5.1568,5.1574,5.1593,5.1592,5.1596,5.1605,5.1615,5.1617,5.1619,5.1626,5.1628,5.1598,5.1598,5.1598,0,5.1464,5.1482,5.1486,5.1499,5.1507,5.1506,5.152,5.1526,5.154,5.1545,5.1541,5.1564,5.157,5.1588,5.1592,5.1597,5.16,5.1595,5.1616,5.1618,5.162,5.1627,5.1629,5.1598,5.1598,5.1598,5.1598,0,5.1489,5.1502,5.1511,5.1525,5.1534,5.1547,5.1552,5.1559,5.156,5.1565,5.158,5.1587,5.1599,5.1603,5.1604,5.1621,5.1619,5.1616,5.1609,5.1623,5.163,5.1632,5.1599,5.1599,5.1599,5.1599,0,0,5.1509,5.1525,5.1529,5.1535,5.1547,5.1557,5.1569,5.1582,5.1588,5.1597,5.1608,5.1623,5.162,5.1626,5.1628,5.1636,5.1651,5.1631,5.1632,5.1635,5.167,5.1673,5.1676,5.165,5.165,5.1651,5.167,0,5.1527,5.1551,5.1555,5.1576,5.1587,5.1587,5.1598,5.1606,5.1611,5.162,5.1625,5.1636,5.1631,5.1635,5.1643,5.1647,5.1658,5.1646,5.1659,5.166,5.1658,5.168,5.1683,5.17,5.1672,5.1673,5.1673,0,5.1552,5.1563,5.1585,5.1596,5.1601,5.1611,5.1623,5.1632,5.1641,5.1643,5.1651,5.1651,5.1664,5.1656,5.1673,5.1665,5.167,5.1674,5.1674,5.1676,5.1668,5.1682,5.1706,5.1709,5.1677,5.1677,5.1676,0,5.1565,5.1585,5.1601,5.1606,5.1619,5.1626,5.1632,5.164,5.1647,5.1657,5.1661,5.1672,5.1678,5.1685,5.1688,5.1683,5.1705,5.1698,5.1708,5.1707,5.1713,5.1713,5.1738,5.1715,5.1715,5.1715,5.1715,0,5.1586,5.16,5.1607,5.1617,5.1632,5.1636,5.165,5.1655,5.1663,5.1673,5.1673,5.1682,5.1685,5.1695,5.1697,5.1711,5.1713,5.1715,5.1716,5.1716,5.1716,5.172,5.1719,5.1716,5.1716,5.1716,5.1716,0,5.1603,5.1609,5.1626,5.1637,5.164,5.1651,5.1659,5.1668,5.1672,5.1685,5.1688,5.1694,5.1706,5.1709,5.1723,5.1724,5.1741,5.174,5.1738,5.1738,5.1748,5.1747,5.1778,5.1782,5.1756,5.1756,5.1756,0,5.1617,5.1627,5.1639,5.1647,5.1653,5.1664,5.1672,5.1675,5.1683,5.1694,5.1701,5.1713,5.1722,5.174,5.1745,5.1756,5.1755,5.1765,5.1757,5.1756,5.1756,5.1756,5.1757,5.1767,5.1767,5.1768,5.1768,0,5.164,5.1642,5.1653,5.1665,5.1674,5.1684,5.1693,5.1698,5.1703,5.1711,5.1724,5.1731,5.1745,5.1756,5.1767,5.1771,5.177,5.177,5.1773,5.1773,5.1772,5.1774,5.1743,5.177,5.1769,5.1769,5.1769,5.1769,5.1656,5.1665,5.1676,5.1688,5.1695,5.1704,5.1713,5.1718,5.1729,5.1741,5.1742,5.1755,5.1763,5.1777,5.1782,5.1792,5.1789,5.1793,5.1794,5.1796,5.1797,5.177,5.1794,5.1794,5.1794,5.1794,5.1794,0,5.168,5.1686,5.1697,5.171,5.172,5.1719,5.1728,5.1736,5.1748,5.1756,5.1766,5.1779,5.179,5.1796,5.1807,5.1813,5.1813,5.1816,5.1816,5.1817,5.1798,5.1795,5.1816,5.1816,5.1816,5.1816,5.1816,5.1816,5.1693,5.1709,5.1713,5.1732,5.1738,5.1752,5.1757,5.1765,5.1771,5.1787,5.1797,5.18,5.1808,5.1819,5.1828,5.183,5.1834,5.1837,5.1838,5.1821,5.1819,5.1816,5.1813,5.1838,5.1838,5.1857,5.1857,5.1857]}]]